Regional Weather Roundup
Issued by NWS Midland/Odessa, TX

Skip options and go directly to product.
Home | Oldest Version | Previous Version | Current Version | All | Graphics & Text | Save Text | Print | Product List | Glossary On

Skip product version selection by date and time.   
069
ASUS44 KMAF 220810
RWRMAF
MIDLAND AREA WEATHER ROUNDUP
NATIONAL WEATHER SERVICE MIDLAND TX
300 AM CDT WED OCT 22 2014

...IN SOUTHWEST TEXAS AND SOUTHEAST NEW MEXICO...

CITY           SKY/WX    TMP DP  RH WIND       PRES   REMARKS
ALPINE         CLOUDY    60  57  88 SE6       30.16F
ANDREWS        CLOUDY    63  58  83 S3        30.09S
ARTESIA        NOT AVBL
BIG SPRING     CLOUDY    64  57  78 S3        30.10S
CARLSBAD       CLOUDY    64  60  87 S8        30.06S
DRYDEN           N/A     65  64  97 E8        30.03S
FORT STOCKTON  CLOUDY    60  58  92 CALM      30.07S
GUAD PASS      MOCLDY    54  53  97 CALM      30.16S
HOBBS          CLOUDY    59  59 100 CALM      30.11R
MARFA          CLOUDY    57  55  94 NE3       30.14S
MIDLAND AIRPK  CLOUDY    67  59  73 S3        30.08S
MIDLAND INTL   CLOUDY    67  59  75 S7        30.07S
ODESSA         CLOUDY    65  59  81 S3        30.08S
PECOS          MOCLDY    60  58  94 E5        30.05S
PRESIDIO       CLOUDY    65  60  83 NE7       30.03S
SEMINOLE       CLOUDY    61  59  91 S3        30.10S
SNYDER         PTCLDY    62  52  70 SE9       30.08S
WINK           MOCLDY    64  61  90 SE9       30.05S
$$
...OTHER STATIONS IN TEXAS...

CITY           SKY/WX    TMP DP  RH WIND       PRES   REMARKS
ABILENE        PTCLDY    64  49  57 S10       30.08R
AMARILLO       MOCLDY    59  52  77 S10       30.09R
AUSTIN         PTCLDY    56  54  93 CALM      30.05S
BROWNSVILLE    PTCLDY    76  71  85 NE6       29.93F
CORPUS CHRISTI MOCLDY    73  65  75 E7        29.97F
DALLAS FTW     PTCLDY    64  59  83 CALM      30.06S
DEL RIO        CLOUDY    70  68  93 CALM      30.00S FOG
EL PASO        PTCLDY    60  55  83 CALM      30.06S
HOUSTON INT    PTCLDY    63  61  93 CALM      30.03S
LUBBOCK        CLOUDY    63  50  62 S12       30.09R
SAN ANGELO     CLOUDY    69  51  52 SE8       30.06S
SAN ANTONIO    MOCLDY    66  51  58 CALM      30.05S
WACO           CLOUDY    62  59  90 NE3       30.07R
WICHITA FALLS  NOT AVBL
$$
...OTHER LOCATIONS IN NEW MEXICO...

CITY           SKY/WX    TMP DP  RH WIND       PRES   REMARKS
ALAMAGORDO     NOT AVBL
ALBUQUERQUE    CLOUDY    57  46  66 S5        30.12R
CANNON AFB     CLOUDY    58  55  92 SW7       30.11S FOG
CLOVIS         CLOUDY    57  54  88 SW7       30.13S
HOLLOMAN AFB   PTCLDY    54  51  90 N5        30.08S
ROSWELL        CLOUDY    62  60  93 S5        30.08R FOG
RUIDOSO        CLOUDY    46  46 100 CALM      30.21S FOG
SANTA FE       CLOUDY    51  48  89 SE7       30.15S
TRUTH OR CONSE PTCLDY    54  51  90 W6        30.10S
TUCUMCARI      MOCLDY    60  55  83 W3        30.07S
$$

USA.gov is the U.S. government's official web portal to all federal, state and local government web resources and services.